Pittsburgh, PA

8:40 PM EDT on October 17, 2017 (GMT -0400)
Pittsburgh International

Weather History for KPIT - March, 2013

Change the Weather History Date:

Monday, March 25, 2013

  Actual Average Record
Temperature  
Mean Temperature 34 °F 43 °F  
Max Temperature 36 °F 53 °F 84 °F (1929)
Min Temperature 32 °F 33 °F 9 °F (1974)
Degree Days  
Heating Degree Days 31 22  
Month to date heating degree days 749 663  
Since 1 July heating degree days 4861 4920  
Cooling Degree Days 0 0  
Month to date cooling degree days 0 0  
Year to date cooling degree days 0 0  
Moisture  
Dew Point 31 °F    
Average Humidity 91    
Maximum Humidity 96    
Minimum Humidity 85    
Precipitation  
Precipitation 0.70 in 0.10 in 0.90 in (2013)
Month to date precipitation 1.79 2.33  
Year to date precipitation 6.36 7.42  
Snow  
Snow 4.70 in 0.10 in 4.70 in (2013)
Month to date snowfall 13.4 6.6  
Since 1 July snowfall 55.6 39.4  
Snow Depth 0.00 in    
Sea Level Pressure  
Sea Level Pressure 29.54 in    
Wind  
Wind Speed 8 mph (SSW)    
Max Wind Speed 17 mph    
Max Gust Speed 23 mph    
Visibility 2 miles    
Events Rain , Snow    
T = Trace of Precipitation, MM = Missing Value Source: NWS Daily Summary

Daily Weather History Graph

Daily Weather History Graph

Search for Another Location

Airport or City:

Trip Planner

Search our weather history database for the weather conditions in past years. The results will help you decide how hot, cold, wet, or windy it might be!

Date:

Astronomy

Mar. 25, 2013 Rise Set
Actual Time 7:15 AM EDT 7:38 PM EDT
Civil Twilight 6:48 AM EDT 8:05 PM EDT
Nautical Twilight 6:16 AM EDT 8:38 PM EDT
Astronomical Twilight 5:43 AM EDT 9:10 PM EDT
Moon 6:08 PM EDT (3/25) 5:58 AM EDT (3/25)
Length of Visible Light 13h 17m
Length of Day
12h 22m
Waxing Gibbous, 96% of the Moon is Illuminated
Mar 25
Waxing Gibbous
Mar 27
Full
Apr 3
Last Quarter
Apr 10
New
Apr 18
First Quarter

Hourly Weather History & Observations

Time (EDT) Temp. Windchill Dew Point Humidity Pressure Visibility Wind Dir Wind Speed Gust Speed Precip Events Conditions
12:12 AM 33.8 °F 24.3 °F 28.4 °F 81% 29.50 in 2.0 mi East 13.8 mph - 0.00 in Snow Light Snow
12:32 AM 32.0 °F 23.0 °F 28.4 °F 87% 29.49 in 0.5 mi East 11.5 mph - 0.00 in Snow Snow
12:51 AM 32.0 °F 23.0 °F 30.0 °F 92% 29.54 in 0.5 mi East 11.5 mph - 0.02 in Snow Snow
1:51 AM 32.0 °F 22.1 °F 30.0 °F 92% 29.53 in 0.5 mi ESE 13.8 mph - 0.02 in Snow Snow
2:51 AM 32.0 °F 22.5 °F 28.9 °F 88% 29.52 in 0.5 mi ESE 12.7 mph - 0.03 in Snow Snow
3:51 AM 32.0 °F 23.6 °F 28.9 °F 88% 29.49 in 0.8 mi ESE 10.4 mph - 0.03 in Snow Light Snow
4:16 AM 32.0 °F 22.5 °F 28.4 °F 87% 29.43 in 1.0 mi ESE 12.7 mph - 0.00 in Snow Light Snow
4:51 AM 32.0 °F 22.5 °F 28.9 °F 88% 29.47 in 0.5 mi ESE 12.7 mph - 0.01 in Snow Snow
5:51 AM 32.0 °F 23.0 °F 28.9 °F 88% 29.46 in 1.0 mi ESE 11.5 mph - 0.02 in Snow Light Snow
6:34 AM 32.0 °F 23.6 °F 28.4 °F 87% 29.42 in 2.0 mi ESE 10.4 mph - 0.00 in Snow Light Snow
6:51 AM 32.0 °F 24.8 °F 30.0 °F 92% 29.47 in 2.0 mi ESE 8.1 mph - 0.00 in Snow Light Snow
7:20 AM 32.0 °F 24.8 °F 30.2 °F 93% 29.42 in 2.0 mi SE 8.1 mph - 0.00 in Snow Light Snow
7:25 AM 32.0 °F 25.6 °F 30.2 °F 93% 29.42 in 2.0 mi South 6.9 mph - 0.00 in Snow Light Freezing Drizzle
7:51 AM 32.0 °F 25.6 °F 30.0 °F 92% 29.48 in 2.0 mi SE 6.9 mph - 0.00 in Snow Light Freezing Drizzle
8:20 AM 33.8 °F 27.7 °F 30.2 °F 87% 29.43 in 2.0 mi SE 6.9 mph - 0.00 in Snow Light Drizzle
8:31 AM 32.0 °F 27.5 °F 30.2 °F 93% 29.43 in 0.5 mi SE 4.6 mph - 0.00 in Snow Light Drizzle
8:51 AM 33.1 °F 27.7 °F 30.9 °F 92% 29.49 in 0.5 mi SE 5.8 mph - 0.00 in Snow Light Drizzle
9:51 AM 33.1 °F 30.0 °F 30.9 °F 92% 29.49 in 0.5 mi SE 3.5 mph - 0.01 in Snow Light Drizzle
10:14 AM 33.8 °F 30.8 °F 30.2 °F 87% 29.44 in 1.0 mi SSE 3.5 mph - 0.01 in Snow Light Snow
10:41 AM 33.8 °F - 32.0 °F 93% 29.44 in 1.0 mi Calm Calm - 0.01 in Snow Light Snow
10:51 AM 34.0 °F 31.0 °F 32.0 °F 92% 29.49 in 2.0 mi WSW 3.5 mph - 0.01 in Snow Light Snow
11:14 AM 33.8 °F - 32.0 °F 93% 29.45 in 1.5 mi Calm Calm - 0.01 in Snow Light Snow
11:51 AM 34.0 °F 28.8 °F 32.0 °F 92% 29.51 in 1.0 mi SW 5.8 mph - 0.03 in Snow Light Snow
12:21 PM 35.6 °F 29.2 °F 32.0 °F 87% 29.46 in 2.0 mi West 8.1 mph - 0.01 in Snow Light Snow
12:51 PM 34.0 °F 28.8 °F 30.9 °F 89% 29.53 in 1.0 mi SW 5.8 mph - 0.03 in Snow Light Snow
1:42 PM 35.6 °F 29.9 °F 32.0 °F 87% 29.49 in 2.0 mi WSW 6.9 mph - 0.03 in Snow Light Snow
1:51 PM 35.1 °F 28.6 °F 32.0 °F 89% 29.54 in 2.0 mi SW 8.1 mph - 0.03 in Snow Light Snow
2:40 PM 35.6 °F 29.9 °F 32.0 °F 87% 29.49 in 3.0 mi SW 6.9 mph - 0.01 in Snow Light Snow
2:51 PM 35.1 °F 30.1 °F 32.0 °F 89% 29.55 in 3.0 mi SW 5.8 mph - 0.01 in Snow Light Snow
3:51 PM 36.0 °F 31.1 °F 32.0 °F 86% 29.56 in 3.0 mi WSW 5.8 mph - 0.01 in Snow Light Snow
4:51 PM 36.0 °F 31.1 °F 33.1 °F 89% 29.58 in 3.0 mi WSW 5.8 mph - 0.02 in Snow Light Snow
5:51 PM 36.0 °F 31.1 °F 33.1 °F 89% 29.60 in 3.0 mi WSW 5.8 mph - 0.00 in Snow Light Snow
6:51 PM 35.6 °F 30.7 °F 32.0 °F 87% 29.58 in 2.0 mi West 5.8 mph - N/A Rain , Snow Light Snow
7:01 PM 33.8 °F 27.7 °F 32.0 °F 93% 29.59 in 1.0 mi West 6.9 mph - 0.01 in Snow Light Snow
7:21 PM 33.8 °F 28.6 °F 30.2 °F 87% 29.60 in 0.5 mi WNW 5.8 mph - 0.02 in Snow Light Snow
7:43 PM 33.8 °F 29.6 °F 32.0 °F 93% 29.62 in 1.0 mi West 4.6 mph - 0.03 in Snow Light Snow
7:51 PM 33.1 °F 28.7 °F 32.0 °F 96% 29.67 in 1.0 mi West 4.6 mph - 0.03 in Snow Light Snow
8:39 PM 33.8 °F 28.6 °F 30.2 °F 87% 29.64 in 1.0 mi West 5.8 mph - 0.01 in Snow Light Snow
8:51 PM 33.1 °F 28.7 °F 30.9 °F 92% 29.70 in 1.0 mi WNW 4.6 mph - 0.02 in Snow Light Snow
9:51 PM 34.0 °F 27.2 °F 30.9 °F 89% 29.73 in 1.5 mi NNW 8.1 mph - 0.02 in Snow Light Snow
10:51 PM 34.0 °F 26.6 °F 30.9 °F 89% 29.75 in 2.0 mi NNW 9.2 mph - 0.00 in Snow Light Snow
11:51 PM 34.0 °F 26.0 °F 30.9 °F 89% 29.78 in 3.0 mi NNW 10.4 mph - 0.00 in Snow Light Snow